Meteo Giornale » Osservazioni meteo Gran Bretagna » Fairford Royal
ore: 19:55 - Osservazioni Meteo Fairford Royal
Lat. 51° 41' N Lon. 1° 47' W Alt. 87 metri s.l.m.
18 °C
Molto Nuvoloso
Temp. 24 Ore
10 °C
22 °C
Ovest/Sud-Ovest
13 Km/h
Dew point 10 °C
Umidità 59 %
Visibilità 10 Km
Il sole sorge alle ore 06:19
Il sole tramonta alle ore 19:54
| Data e Ora | Cielo e Fenomeni | T °C | DP °C | Um. % | Pres. hPa | Vis. km | Vento km/h | |
|---|---|---|---|---|---|---|---|---|
| Oggi h: 19:55 | Molto Nuvoloso | 18 | 10 | 59 | 1019 | 10 | O/SO 13 | |
| Oggi h: 18:55 | Molto Nuvoloso | 20 | 10 | 52 | 1019 | 10 | O/SO 20.3 | |
| Oggi h: 17:55 | Coperto | 21 | 10 | 49 | 1019 | 10 | O 18.5 | |
| Oggi h: 16:55 | Nuvoloso | 22 | 10 | 46 | 1019 | 10 | O 22.2 | |
| Oggi h: 15:55 | Molto Nuvoloso | 22 | 8 | 40 | 1019 | 10 | O 24 | |
| Oggi h: 14:55 | Poco Nuvoloso | 22 | 10 | 46 | 1019 | 10 | O 25.9 | |
| Oggi h: 13:55 | Molto Nuvoloso | 22 | 10 | 46 | 1019 | 10 | O 24 | |
| Oggi h: 12:55 | Molto Nuvoloso | 22 | 9 | 43 | 1019 | 10 | O 18.5 | |
| Oggi h: 12:29 | Molto Nuvoloso | 21 | 9 | 46 | 1020 | 10 | O 22.2 | |
| Oggi h: 11:55 | Molto Nuvoloso | 20 | 10 | 52 | 1020 | 10 | O/SO 18.5 | |
| Oggi h: 10:55 | Sereno | 19 | 11 | 59 | 1020 | 10 | O/SO 11.1 | |
| Oggi h: 09:55 | Coperto | 17 | 11 | 67 | 1020 | 10 | O/SO 14.8 | |
| Oggi h: 08:55 | Molto Nuvoloso | 14 | 12 | 87 | 1020 | 10 | O/SO 11.1 | |
| Oggi h: 07:55 | Nuvoloso | 12 | 10 | 87 | 1020 | 10 | O/SO 7.4 | |
| Oggi h: 06:55 | Sereno | 10 | 9 | 93 | 1020 | 10 | N 0 | |
| Oggi h: 05:55 | Sereno | 10 | 9 | 93 | 1019 | 10 | N 0 | |
| Oggi h: 04:55 | Coperto | 10 | 9 | 93 | 1019 | 10 | N 5.5 | |
| Oggi h: 03:55 | Sereno | 10 | 9 | 93 | 1019 | 10 | N 5.5 | |
| Oggi h: 02:55 | Sereno | 13 | 11 | 87 | 1019 | 10 | N 5.5 | |
| Oggi h: 01:55 | Sereno | 11 | 9 | 87 | 1019 | 10 | N 5.5 | |
| Oggi h: 00:55 | Poco Nuvoloso | 11 | 10 | 93 | 1019 | 10 | O/NO 11.1 | |
| Ieri h: 23:55 | Poco Nuvoloso | 12 | 10 | 87 | 1019 | 10 | N 5.5 | |
| Ieri h: 22:55 | Molto Nuvoloso | 13 | 9 | 76 | 1019 | 10 | O 7.4 | |
| Ieri h: 21:55 | Sereno | 13 | 9 | 76 | 1018 | 10 | O 14.8 | |
| Ieri h: 20:55 | Sereno | 17 | 10 | 63 | 1018 | 10 | O/NO 16.7 | |



